Tracking 30106 objects as of 23-Jan-2025
HD Live streaming from Space Station
objects crossing your sky now

ZY 3

Track ZY 3 now!
10-day predictions
ZY 3 is classified as:


NORAD ID: 38046
Int'l Code: 2012-001A
Perigee: 432.1 km
Apogee: 439.5 km
Inclination: 97.2 °
Period: 93.1 minutes
Semi major axis: 6806 km
RCS: 5.391 m2 (large)
Launch date: January 9, 2012
Source: People's Republic of China (PRC)
Launch site: Taiyaun Space Center, China (TSC)
Your satellite tracking list
Your tracking list is empty




NASA's NSSDC Master Catalog

Two Line Element Set (TLE):
1 38046U 12001A   25023.56429672  .00023958  00000-0  49298-3 0  9990
2 38046  97.2137  88.3498 0005453  77.5890 282.5970 15.45933692724761
Source of the keplerian elements: AFSPC